| time (UTC) | temp F | wind direction | speed knots | gust knots | rain 1hr in | rain 24hr in | rain mn in | humidity % | barometer mb |
| 20260508085307 | 46 | 114 | 0.9 | 1.7 | 0.00 | 0.00 | 0.00 | 75 | 1013.6 |
| 20260508084802 | 46 | 225 | 1.7 | 1.7 | 0.00 | 0.00 | 0.00 | 75 | 1013.5 |
| 20260508084259 | 46 | 195 | 0.0 | 0.0 | 0.00 | 0.00 | 0.00 | 75 | 1013.5 |
| 20260508083757 | 46 | 303 | 0.9 | 0.9 | 0.00 | 0.00 | 0.00 | 76 | 1013.6 |
| 20260508083254 | 45 | 73 | 0.9 | 0.9 | 0.00 | 0.00 | 0.00 | 76 | 1013.5 |
| 20260508082754 | 45 | 275 | 0.9 | 0.9 | 0.00 | 0.00 | 0.00 | 76 | 1013.6 |
| 20260508082252 | 45 | 194 | 0.9 | 0.9 | 0.00 | 0.00 | 0.00 | 76 | 1013.4 |
| 20260508081749 | 45 | 206 | 0.0 | 0.0 | 0.00 | 0.00 | 0.00 | 76 | 1013.3 |
| 20260508081246 | 45 | 77 | 0.9 | 1.7 | 0.00 | 0.00 | 0.00 | 76 | 1013.6 |
| 20260508080743 | 45 | 146 | 0.0 | 0.0 | 0.00 | 0.00 | 0.00 | 76 | 1013.6 |
| 20260508080241 | 46 | 109 | 0.0 | 0.0 | 0.00 | 0.00 | 0.00 | 76 | 1013.7 |
| 20260508075737 | 46 | 256 | 2.6 | 2.6 | 0.00 | 0.00 | 0.00 | 76 | 1013.6 |
| 20260508075234 | 46 | 137 | 0.0 | 0.9 | 0.00 | 0.00 | 0.00 | 75 | 1013.5 |
| 20260508074732 | 46 | 298 | 2.6 | 2.6 | 0.00 | 0.00 | 0.00 | 75 | 1013.7 |
| 20260508074229 | 46 | 326 | 2.6 | 2.6 | 0.00 | 0.00 | 0.00 | 74 | 1013.8 |
| 20260508073726 | 47 | 178 | 0.0 | 0.0 | 0.00 | 0.00 | 0.00 | 73 | 1013.9 |
| 20260508073224 | 47 | 162 | 1.7 | 1.7 | 0.00 | 0.00 | 0.00 | 72 | 1013.9 |
| 20260508072719 | 47 | 213 | 0.9 | 1.7 | 0.00 | 0.00 | 0.00 | 71 | 1013.7 |
| 20260508072217 | 48 | 57 | 0.9 | 0.9 | 0.00 | 0.00 | 0.00 | 70 | 1013.8 |
| 20260508071714 | 48 | 249 | 0.0 | 0.9 | 0.00 | 0.00 | 0.00 | 69 | 1014.0 |
| 20260508071212 | 48 | 262 | 0.9 | 0.9 | 0.00 | 0.00 | 0.00 | 68 | 1013.7 |
| 20260508070709 | 49 | 255 | 1.7 | 1.7 | 0.00 | 0.00 | 0.00 | 67 | 1013.8 |
| 20260508070208 | 49 | 295 | 4.3 | 5.2 | 0.00 | 0.00 | 0.00 | 66 | 1013.9 |
| 20260508065704 | 49 | 30 | 2.6 | 2.6 | 0.00 | 0.00 | 0.00 | 65 | 1013.8 |
| 20260508065202 | 49 | 205 | 2.6 | 5.2 | 0.00 | 0.00 | 0.00 | 64 | 1013.8 |
| 20260508064700 | 48 | 239 | 1.7 | 1.7 | 0.00 | 0.00 | 0.00 | 63 | 1013.8 |
| 20260508064158 | 48 | 260 | 0.9 | 0.9 | 0.00 | 0.00 | 0.00 | 63 | 1014.0 |
| 20260508063655 | 48 | 197 | 1.7 | 1.7 | 0.00 | 0.00 | 0.00 | 64 | 1013.9 |
| 20260508063153 | 48 | 230 | 0.9 | 0.9 | 0.00 | 0.00 | 0.00 | 63 | 1013.8 |
| 20260508062650 | 48 | 281 | 1.7 | 1.7 | 0.00 | 0.00 | 0.00 | 63 | 1013.8 |
| 20260508062147 | 48 | 233 | 0.9 | 1.7 | 0.00 | 0.00 | 0.00 | 63 | 1013.9 |
| 20260508061644 | 48 | 215 | 1.7 | 1.7 | 0.00 | 0.00 | 0.00 | 63 | 1013.8 |
| 20260508061141 | 48 | 132 | 0.0 | 0.0 | 0.00 | 0.00 | 0.00 | 65 | 1014.0 |
| 20260508060638 | 47 | 153 | 0.9 | 0.9 | 0.00 | 0.00 | 0.00 | 65 | 1013.8 |
| 20260508060135 | 47 | 143 | 0.0 | 0.0 | 0.00 | 0.00 | 0.00 | 65 | 1013.9 |
| 20260508055631 | 47 | 167 | 0.0 | 0.0 | 0.00 | 0.00 | 0.00 | 65 | 1013.9 |
| 20260508055128 | 47 | 185 | 0.0 | 0.0 | 0.00 | 0.00 | 0.00 | 65 | 1013.9 |
| 20260508054624 | 47 | 183 | 0.9 | 0.9 | 0.00 | 0.00 | 0.00 | 66 | 1013.9 |
| 20260508054122 | 47 | 162 | 0.0 | 0.0 | 0.00 | 0.00 | 0.00 | 66 | 1014.0 |
| 20260508053618 | 47 | 164 | 0.0 | 0.0 | 0.00 | 0.00 | 0.00 | 66 | 1014.2 |
| 20260508053116 | 47 | 149 | 0.0 | 0.0 | 0.00 | 0.00 | 0.00 | 66 | 1014.3 |
| 20260508052614 | 48 | 152 | 0.9 | 0.0 | 0.00 | 0.00 | 0.00 | 65 | 1014.4 |
| 20260508052111 | 48 | 168 | 0.0 | 0.0 | 0.00 | 0.00 | 0.00 | 65 | 1014.3 |
| 20260508051607 | 48 | 182 | 0.9 | 0.9 | 0.00 | 0.00 | 0.00 | 64 | 1014.2 |
| 20260508051102 | 48 | 188 | 0.0 | 0.0 | 0.00 | 0.00 | 0.00 | 64 | 1014.5 |
| 20260508050558 | 48 | 203 | 0.0 | 0.0 | 0.00 | 0.00 | 0.00 | 64 | 1014.4 |
| 20260508050056 | 48 | 212 | 0.0 | 0.0 | 0.00 | 0.00 | 0.00 | 65 | 1014.3 |
| 20260508045552 | 48 | 213 | 0.9 | 0.9 | 0.00 | 0.00 | 0.00 | 64 | 1014.3 |
| 20260508045050 | 48 | 60 | 0.0 | 0.0 | 0.00 | 0.00 | 0.00 | 63 | 1014.4 |
| 20260508044547 | 48 | 188 | 0.9 | 0.9 | 0.00 | 0.00 | 0.00 | 63 | 1014.7 |
| 20260508044043 | 48 | 131 | 0.0 | 0.0 | 0.00 | 0.00 | 0.00 | 63 | 1014.5 |
| 20260508043539 | 48 | 243 | 0.0 | 0.0 | 0.00 | 0.00 | 0.00 | 64 | 1014.3 |
| 20260508043037 | 48 | 349 | 0.0 | 0.0 | 0.00 | 0.00 | 0.00 | 64 | 1014.5 |
| 20260508042533 | 48 | 341 | 0.9 | 0.9 | 0.00 | 0.00 | 0.00 | 64 | 1014.5 |
| 20260508042031 | 48 | 233 | 0.0 | 0.0 | 0.00 | 0.00 | 0.00 | 63 | 1014.5 |
| 20260508041527 | 48 | 208 | 0.9 | 0.9 | 0.00 | 0.00 | 0.00 | 63 | 1014.4 |
| 20260508041024 | 48 | 215 | 1.7 | 0.9 | 0.00 | 0.00 | 0.00 | 62 | 1014.2 |
| 20260508040521 | 48 | 147 | 0.0 | 0.0 | 0.00 | 0.00 | 0.00 | 63 | 1014.3 |
| 20260508040019 | 48 | 150 | 0.0 | 0.0 | 0.00 | 0.00 | 0.00 | 63 | 1014.6 |
| 20260508035515 | 48 | 172 | 0.0 | 0.0 | 0.00 | 0.00 | 0.00 | 62 | 1014.5 |
| 20260508035012 | 48 | 141 | 1.7 | 1.7 | 0.00 | 0.00 | 0.00 | 62 | 1014.5 |
| 20260508034510 | 48 | 341 | 0.0 | 0.0 | 0.00 | 0.00 | 0.00 | 61 | 1014.5 |
| 20260508034006 | 48 | 200 | 0.0 | 0.0 | 0.00 | 0.00 | 0.00 | 61 | 1014.6 |
| 20260508033504 | 48 | 178 | 0.9 | 0.9 | 0.00 | 0.00 | 0.00 | 60 | 1014.7 |
| 20260508033001 | 48 | 235 | 2.6 | 2.6 | 0.00 | 0.00 | 0.00 | 60 | 1014.8 |
| 20260508032458 | 47 | 45 | 0.9 | 0.9 | 0.00 | 0.00 | 0.00 | 61 | 1014.7 |
| 20260508031955 | 45 | 6 | 0.9 | 0.9 | 0.00 | 0.00 | 0.00 | 64 | 1014.5 |
| 20260508031453 | 45 | 118 | 0.0 | 0.0 | 0.00 | 0.00 | 0.00 | 67 | 1014.4 |
| 20260508030948 | 44 | 199 | 0.0 | 0.0 | 0.00 | 0.00 | 0.00 | 68 | 1014.5 |
| 20260508030445 | 43 | 216 | 0.0 | 0.0 | 0.00 | 0.00 | 0.00 | 71 | 1014.4 |
| 20260508025942 | 42 | 185 | 0.0 | 0.0 | 0.00 | 0.00 | 0.00 | 76 | 1014.4 |
| 20260508025433 | 42 | 298 | 0.0 | 0.0 | 0.00 | 0.00 | 0.00 | 78 | 1014.4 |
| 20260508024930 | 41 | 304 | 0.0 | 0.0 | 0.00 | 0.00 | 0.00 | 78 | 1014.3 |
| 20260508024426 | 41 | 305 | 0.0 | 0.0 | 0.00 | 0.00 | 0.00 | 79 | 1014.4 |
| 20260508023923 | 42 | 305 | 0.0 | 0.0 | 0.00 | 0.00 | 0.00 | 79 | 1014.6 |
| 20260508023420 | 42 | 305 | 0.0 | 0.0 | 0.00 | 0.00 | 0.00 | 78 | 1014.5 |
| 20260508022917 | 42 | 305 | 0.0 | 0.0 | 0.00 | 0.00 | 0.00 | 78 | 1014.5 |
| 20260508022413 | 42 | 305 | 0.0 | 0.0 | 0.00 | 0.00 | 0.00 | 77 | 1014.3 |
| 20260508021910 | 42 | 305 | 0.0 | 0.0 | 0.00 | 0.00 | 0.00 | 76 | 1014.4 |
| 20260508021406 | 42 | 305 | 0.0 | 0.0 | 0.00 | 0.00 | 0.00 | 76 | 1014.3 |
| 20260508020902 | 42 | 305 | 0.0 | 0.0 | 0.00 | 0.00 | 0.00 | 77 | 1014.4 |
| 20260508020400 | 42 | 305 | 0.0 | 0.0 | 0.00 | 0.00 | 0.00 | 75 | 1014.3 |
| 20260508015857 | 42 | 305 | 0.0 | 0.0 | 0.00 | 0.00 | 0.00 | 75 | 1014.3 |
| 20260508015355 | 42 | 305 | 0.0 | 0.0 | 0.00 | 0.00 | 0.00 | 74 | 1014.2 |
| 20260508014851 | 42 | 305 | 0.0 | 0.0 | 0.00 | 0.00 | 0.00 | 76 | 1014.5 |
| 20260508014348 | 42 | 305 | 0.0 | 0.0 | 0.00 | 0.00 | 0.00 | 75 | 1014.2 |
| 20260508013843 | 43 | 305 | 0.0 | 0.0 | 0.00 | 0.00 | 0.00 | 74 | 1014.1 |
| 20260508013340 | 43 | 305 | 0.0 | 0.0 | 0.00 | 0.00 | 0.00 | 74 | 1014.2 |
| 20260508012837 | 43 | 305 | 0.0 | 0.0 | 0.00 | 0.00 | 0.00 | 73 | 1014.0 |
| 20260508012334 | 43 | 305 | 0.0 | 0.0 | 0.00 | 0.00 | 0.00 | 71 | 1014.1 |
| 20260508011832 | 44 | 305 | 0.0 | 0.0 | 0.00 | 0.00 | 0.00 | 69 | 1014.1 |
| 20260508011329 | 44 | 305 | 0.0 | 0.0 | 0.00 | 0.00 | 0.00 | 68 | 1013.8 |
| 20260508010821 | 44 | 305 | 0.0 | 0.0 | 0.00 | 0.00 | 0.00 | 67 | 1013.9 |
| 20260508010319 | 44 | 305 | 0.0 | 0.0 | 0.00 | 0.00 | 0.00 | 67 | 1014.1 |
| 20260508005816 | 45 | 305 | 0.0 | 0.0 | 0.00 | 0.00 | 0.00 | 67 | 1014.0 |
| 20260508005312 | 45 | 305 | 0.0 | 0.0 | 0.00 | 0.00 | 0.00 | 65 | 1014.0 |
| 20260508004808 | 46 | 305 | 0.0 | 0.0 | 0.00 | 0.00 | 0.00 | 65 | 1014.0 |
| 20260508004304 | 46 | 305 | 0.0 | 0.0 | 0.00 | 0.00 | 0.00 | 62 | 1014.1 |
| 20260508003801 | 47 | 305 | 0.0 | 0.0 | 0.00 | 0.00 | 0.00 | 61 | 1013.9 |
| 20260508003259 | 48 | 305 | 0.0 | 0.0 | 0.00 | 0.00 | 0.00 | 58 | 1013.7 |
| 20260508002755 | 49 | 305 | 0.0 | 0.0 | 0.00 | 0.00 | 0.00 | 53 | 1013.8 |
| 20260508002252 | 50 | 305 | 0.0 | 0.0 | 0.00 | 0.00 | 0.00 | 49 | 1013.9 |
| 20260508001748 | 50 | 308 | 0.9 | 0.9 | 0.00 | 0.00 | 0.00 | 48 | 1013.8 |
| 20260508001244 | 50 | 309 | 0.9 | 0.9 | 0.00 | 0.00 | 0.00 | 47 | 1013.8 |
| 20260508000741 | 51 | 311 | 0.9 | 0.9 | 0.00 | 0.00 | 0.00 | 44 | 1013.8 |
| 20260508000238 | 51 | 293 | 0.0 | 0.0 | 0.00 | 0.00 | 0.00 | 45 | 1013.6 |
| 20260507235734 | 52 | 327 | 0.9 | 1.7 | 0.00 | 0.00 | 0.00 | 43 | 1013.7 |
| 20260507235232 | 52 | 321 | 0.9 | 0.9 | 0.00 | 0.00 | 0.00 | 43 | 1013.7 |
| 20260507234728 | 52 | 329 | 0.0 | 0.0 | 0.00 | 0.00 | 0.00 | 45 | 1013.6 |
| 20260507234225 | 52 | 319 | 3.5 | 4.3 | 0.00 | 0.00 | 0.00 | 42 | 1013.5 |
| 20260507233721 | 53 | 290 | 2.6 | 4.3 | 0.00 | 0.00 | 0.00 | 42 | 1013.4 |
| 20260507233219 | 53 | 329 | 1.7 | 1.7 | 0.00 | 0.00 | 0.00 | 43 | 1013.5 |
| 20260507232716 | 53 | 299 | 3.5 | 4.3 | 0.00 | 0.00 | 0.00 | 41 | 1013.6 |
| 20260507232214 | 53 | 289 | 0.9 | 1.7 | 0.00 | 0.00 | 0.00 | 42 | 1013.6 |
| 20260507231710 | 54 | 355 | 3.5 | 4.3 | 0.00 | 0.00 | 0.00 | 41 | 1013.4 |
| 20260507231207 | 54 | 296 | 2.6 | 2.6 | 0.00 | 0.00 | 0.00 | 42 | 1013.4 |
| 20260507230703 | 54 | 302 | 1.7 | 1.7 | 0.00 | 0.00 | 0.00 | 39 | 1013.8 |
| 20260507230201 | 55 | 226 | 2.6 | 4.3 | 0.00 | 0.00 | 0.00 | 38 | 1013.7 |
| 20260507225700 | 55 | 11 | 2.6 | 2.6 | 0.00 | 0.00 | 0.00 | 38 | 1013.6 |
| 20260507225157 | 55 | 341 | 3.5 | 5.2 | 0.00 | 0.00 | 0.00 | 38 | 1013.8 |
| 20260507224653 | 55 | 300 | 3.5 | 4.3 | 0.00 | 0.00 | 0.00 | 38 | 1014.0 |
| 20260507224149 | 55 | 331 | 5.2 | 6.1 | 0.00 | 0.00 | 0.00 | 37 | 1013.8 |
| 20260507223645 | 55 | 330 | 2.6 | 2.6 | 0.00 | 0.00 | 0.00 | 37 | 1013.7 |
| 20260507223143 | 56 | 302 | 3.5 | 4.3 | 0.00 | 0.00 | 0.00 | 36 | 1013.6 |
| 20260507222639 | 56 | 8 | 3.5 | 5.2 | 0.00 | 0.00 | 0.00 | 36 | 1013.6 |
| 20260507222136 | 56 | 311 | 4.3 | 7.0 | 0.00 | 0.00 | 0.00 | 35 | 1013.6 |
| 20260507221632 | 56 | 316 | 3.5 | 4.3 | 0.00 | 0.00 | 0.00 | 39 | 1013.6 |
| 20260507221129 | 56 | 298 | 4.3 | 7.0 | 0.00 | 0.00 | 0.00 | 37 | 1013.8 |
| 20260507220626 | 56 | 315 | 4.3 | 6.1 | 0.00 | 0.00 | 0.00 | 37 | 1013.8 |
| 20260507220124 | 56 | 345 | 1.7 | 2.6 | 0.00 | 0.00 | 0.00 | 38 | 1013.7 |
| 20260507215619 | 56 | 321 | 4.3 | 5.2 | 0.00 | 0.00 | 0.00 | 37 | 1013.5 |
| 20260507215117 | 55 | 358 | 1.7 | 1.7 | 0.00 | 0.00 | 0.00 | 41 | 1013.7 |
| 20260507214614 | 54 | 289 | 2.6 | 4.3 | 0.00 | 0.00 | 0.00 | 41 | 1013.5 |
| 20260507214110 | 56 | 7 | 6.1 | 7.8 | 0.00 | 0.00 | 0.00 | 38 | 1013.5 |
| 20260507213607 | 55 | 297 | 4.3 | 5.2 | 0.00 | 0.00 | 0.00 | 42 | 1013.7 |
| 20260507213104 | 54 | 356 | 1.7 | 1.7 | 0.00 | 0.00 | 0.00 | 49 | 1013.5 |
| 20260507212600 | 55 | 308 | 1.7 | 2.6 | 0.00 | 0.00 | 0.00 | 46 | 1013.4 |
| 20260507212057 | 56 | 343 | 5.2 | 7.0 | 0.00 | 0.00 | 0.00 | 42 | 1013.6 |
| 20260507211554 | 56 | 1 | 6.1 | 9.6 | 0.00 | 0.00 | 0.00 | 42 | 1013.3 |
| 20260507211050 | 56 | 342 | 2.6 | 1.7 | 0.00 | 0.00 | 0.00 | 48 | 1013.4 |
| 20260507210547 | 56 | 358 | 2.6 | 2.6 | 0.00 | 0.00 | 0.00 | 47 | 1013.4 |
| 20260507210044 | 54 | 321 | 1.7 | 1.7 | 0.00 | 0.00 | 0.00 | 54 | 1013.2 |
| 20260507205541 | 53 | 357 | 3.5 | 2.6 | 0.00 | 0.00 | 0.00 | 52 | 1013.2 |
| 20260507205037 | 54 | 353 | 1.7 | 2.6 | 0.00 | 0.00 | 0.00 | 49 | 1012.9 |
| 20260507204533 | 54 | 312 | 2.6 | 2.6 | 0.00 | 0.00 | 0.00 | 50 | 1013.3 |
| 20260507204031 | 54 | 301 | 4.3 | 5.2 | 0.00 | 0.00 | 0.00 | 49 | 1013.0 |
| 20260507203529 | 53 | 293 | 1.7 | 2.6 | 0.00 | 0.00 | 0.00 | 51 | 1013.0 |
| 20260507203026 | 54 | 314 | 2.6 | 2.6 | 0.00 | 0.00 | 0.00 | 51 | 1013.0 |
| 20260507202521 | 55 | 310 | 4.3 | 7.0 | 0.00 | 0.00 | 0.00 | 47 | 1012.7 |
| 20260507202018 | 55 | 248 | 3.5 | 5.2 | 0.00 | 0.00 | 0.00 | 44 | 1012.9 |
| 20260507201513 | 56 | 199 | 0.9 | 1.7 | 0.00 | 0.00 | 0.00 | 44 | 1013.2 |
| 20260507201010 | 56 | 314 | 4.3 | 5.2 | 0.00 | 0.00 | 0.00 | 45 | 1012.7 |
| 20260507200506 | 57 | 215 | 3.5 | 5.2 | 0.00 | 0.00 | 0.00 | 41 | 1012.7 |
| 20260507200002 | 56 | 246 | 2.6 | 4.3 | 0.00 | 0.00 | 0.00 | 46 | 1012.8 |
| 20260507195459 | 55 | 313 | 4.3 | 6.1 | 0.00 | 0.00 | 0.00 | 43 | 1012.8 |
| 20260507194956 | 56 | 29 | 3.5 | 4.3 | 0.00 | 0.00 | 0.00 | 44 | 1012.7 |
| 20260507194453 | 57 | 314 | 5.2 | 6.1 | 0.00 | 0.00 | 0.00 | 43 | 1012.8 |
| 20260507193949 | 56 | 5 | 2.6 | 4.3 | 0.00 | 0.00 | 0.00 | 44 | 1012.9 |
| 20260507193446 | 57 | 347 | 6.1 | 7.8 | 0.00 | 0.00 | 0.00 | 39 | 1013.0 |
| 20260507192942 | 59 | 349 | 1.7 | 2.6 | 0.00 | 0.00 | 0.00 | 42 | 1013.0 |
| 20260507192439 | 58 | 336 | 1.7 | 4.3 | 0.00 | 0.00 | 0.00 | 41 | 1013.0 |
| 20260507191936 | 57 | 289 | 6.1 | 8.7 | 0.00 | 0.00 | 0.00 | 41 | 1012.9 |
| 20260507191432 | 57 | 320 | 8.7 | 8.7 | 0.00 | 0.00 | 0.00 | 40 | 1013.0 |
| 20260507190928 | 57 | 322 | 2.6 | 2.6 | 0.00 | 0.00 | 0.00 | 42 | 1013.4 |
| 20260507190426 | 58 | 325 | 6.1 | 7.0 | 0.00 | 0.00 | 0.00 | 38 | 1013.2 |
| 20260507185925 | 56 | 8 | 1.7 | 2.6 | 0.00 | 0.00 | 0.00 | 43 | 1013.2 |
| 20260507185422 | 56 | 327 | 2.6 | 2.6 | 0.00 | 0.00 | 0.00 | 44 | 1013.0 |
| 20260507184919 | 56 | 312 | 4.3 | 6.1 | 0.00 | 0.00 | 0.00 | 44 | 1013.3 |
| 20260507184417 | 57 | 335 | 2.6 | 5.2 | 0.00 | 0.00 | 0.00 | 43 | 1013.3 |
| 20260507183914 | 57 | 240 | 2.6 | 2.6 | 0.00 | 0.00 | 0.00 | 43 | 1013.3 |
| 20260507183411 | 57 | 325 | 4.3 | 5.2 | 0.00 | 0.00 | 0.00 | 41 | 1013.2 |
| 20260507182908 | 57 | 18 | 5.2 | 6.1 | 0.00 | 0.00 | 0.00 | 40 | 1013.2 |
| 20260507182403 | 56 | 287 | 2.6 | 2.6 | 0.00 | 0.00 | 0.00 | 43 | 1013.4 |
| 20260507181900 | 55 | 299 | 4.3 | 5.2 | 0.00 | 0.00 | 0.00 | 45 | 1013.4 |
| 20260507181356 | 55 | 324 | 2.6 | 4.3 | 0.00 | 0.00 | 0.00 | 50 | 1013.4 |
| 20260507180853 | 55 | 314 | 1.7 | 1.7 | 0.00 | 0.00 | 0.00 | 46 | 1013.3 |
| 20260507180350 | 55 | 326 | 2.6 | 2.6 | 0.00 | 0.00 | 0.00 | 47 | 1013.4 |
| 20260507175846 | 55 | 320 | 3.5 | 4.3 | 0.00 | 0.00 | 0.00 | 51 | 1013.4 |
| 20260507175343 | 55 | 299 | 2.6 | 2.6 | 0.00 | 0.00 | 0.00 | 48 | 1013.5 |
| 20260507174840 | 56 | 341 | 2.6 | 2.6 | 0.00 | 0.00 | 0.00 | 46 | 1013.5 |
| 20260507174338 | 56 | 330 | 3.5 | 4.3 | 0.00 | 0.00 | 0.00 | 46 | 1013.5 |
| 20260507173835 | 55 | 347 | 0.9 | 1.7 | 0.00 | 0.00 | 0.00 | 51 | 1013.3 |
| 20260507173332 | 56 | 296 | 5.2 | 6.1 | 0.00 | 0.00 | 0.00 | 43 | 1013.5 |
| 20260507172828 | 55 | 233 | 0.9 | 0.9 | 0.00 | 0.00 | 0.00 | 46 | 1013.6 |
| 20260507172325 | 55 | 289 | 0.9 | 0.9 | 0.00 | 0.00 | 0.00 | 48 | 1013.7 |
| 20260507171821 | 55 | 311 | 1.7 | 1.7 | 0.00 | 0.00 | 0.00 | 47 | 1013.6 |
| 20260507171318 | 57 | 312 | 3.5 | 5.2 | 0.00 | 0.00 | 0.00 | 45 | 1013.6 |
| 20260507170815 | 55 | 293 | 4.3 | 7.0 | 0.00 | 0.00 | 0.00 | 49 | 1013.7 |
| 20260507170311 | 55 | 320 | 4.3 | 6.1 | 0.00 | 0.00 | 0.00 | 47 | 1013.6 |
| 20260507165807 | 56 | 311 | 2.6 | 2.6 | 0.00 | 0.00 | 0.00 | 45 | 1013.5 |
| 20260507165306 | 57 | 359 | 4.3 | 5.2 | 0.00 | 0.00 | 0.00 | 43 | 1013.6 |
| 20260507164759 | 56 | 310 | 4.3 | 5.2 | 0.00 | 0.00 | 0.00 | 47 | 1013.5 |
| 20260507164257 | 57 | 182 | 0.0 | 0.9 | 0.00 | 0.00 | 0.00 | 44 | 1013.5 |
| 20260507163754 | 57 | 215 | 2.6 | 2.6 | 0.00 | 0.00 | 0.00 | 47 | 1013.5 |
| 20260507163252 | 58 | 312 | 6.1 | 7.8 | 0.00 | 0.00 | 0.00 | 44 | 1013.7 |
| 20260507162747 | 58 | 344 | 0.0 | 0.9 | 0.00 | 0.00 | 0.00 | 46 | 1013.6 |
| 20260507162243 | 58 | 332 | 2.6 | 2.6 | 0.00 | 0.00 | 0.00 | 45 | 1013.6 |
| 20260507161741 | 57 | 352 | 0.9 | 0.9 | 0.00 | 0.00 | 0.00 | 40 | 1013.7 |
| 20260507161237 | 57 | 275 | 0.9 | 0.9 | 0.00 | 0.00 | 0.00 | 44 | 1013.6 |
| 20260507160733 | 57 | 25 | 0.0 | 0.9 | 0.00 | 0.00 | 0.00 | 42 | 1013.6 |
| 20260507160229 | 57 | 14 | 1.7 | 4.3 | 0.00 | 0.00 | 0.00 | 43 | 1013.6 |
| 20260507155725 | 57 | 306 | 1.7 | 1.7 | 0.00 | 0.00 | 0.00 | 46 | 1013.7 |
| 20260507155222 | 56 | 293 | 1.7 | 1.7 | 0.00 | 0.00 | 0.00 | 43 | 1013.7 |
| 20260507154719 | 56 | 29 | 0.0 | 0.0 | 0.00 | 0.00 | 0.00 | 42 | 1013.8 |
| 20260507154216 | 54 | 287 | 2.6 | 4.3 | 0.00 | 0.00 | 0.00 | 47 | 1013.8 |
| 20260507153712 | 55 | 321 | 2.6 | 4.3 | 0.00 | 0.00 | 0.00 | 45 | 1013.5 |
| 20260507153209 | 54 | 324 | 2.6 | 2.6 | 0.00 | 0.00 | 0.00 | 44 | 1013.8 |
| 20260507152706 | 56 | 317 | 3.5 | 4.3 | 0.00 | 0.00 | 0.00 | 46 | 1013.8 |
| 20260507152201 | 57 | 343 | 3.5 | 4.3 | 0.00 | 0.00 | 0.00 | 49 | 1013.9 |
| 20260507151658 | 58 | 319 | 2.6 | 5.2 | 0.00 | 0.00 | 0.00 | 44 | 1013.9 |
| 20260507151154 | 56 | 194 | 2.6 | 2.6 | 0.00 | 0.00 | 0.00 | 49 | 1013.9 |
| 20260507150651 | 55 | 141 | 2.6 | 4.3 | 0.00 | 0.00 | 0.00 | 48 | 1013.9 |
| 20260507150148 | 55 | 298 | 0.9 | 1.7 | 0.00 | 0.00 | 0.00 | 48 | 1013.8 |
| 20260507145644 | 55 | 325 | 5.2 | 5.2 | 0.00 | 0.00 | 0.00 | 44 | 1013.9 |
| 20260507145141 | 56 | 332 | 3.5 | 4.3 | 0.00 | 0.00 | 0.00 | 45 | 1013.8 |
| 20260507144637 | 57 | 26 | 0.9 | 0.9 | 0.00 | 0.00 | 0.00 | 41 | 1013.8 |
| 20260507144136 | 55 | 36 | 0.0 | 0.9 | 0.00 | 0.00 | 0.00 | 47 | 1013.8 |
| 20260507143632 | 57 | 323 | 2.6 | 5.2 | 0.00 | 0.00 | 0.00 | 41 | 1013.7 |
| 20260507143129 | 56 | 83 | 0.9 | 0.9 | 0.00 | 0.00 | 0.00 | 43 | 1013.8 |
| 20260507142624 | 56 | 308 | 2.6 | 2.6 | 0.00 | 0.00 | 0.00 | 44 | 1013.7 |
| 20260507142122 | 55 | 53 | 0.0 | 0.9 | 0.00 | 0.00 | 0.00 | 44 | 1013.7 |
| 20260507141618 | 55 | 338 | 2.6 | 4.3 | 0.00 | 0.00 | 0.00 | 46 | 1014.0 |
| 20260507141115 | 55 | 250 | 2.6 | 1.7 | 0.00 | 0.00 | 0.00 | 45 | 1014.0 |
| 20260507140611 | 54 | 150 | 0.0 | 0.9 | 0.00 | 0.00 | 0.00 | 50 | 1014.0 |
| 20260507140109 | 54 | 27 | 1.7 | 1.7 | 0.00 | 0.00 | 0.00 | 47 | 1013.9 |
| 20260507135606 | 54 | 300 | 0.9 | 1.7 | 0.00 | 0.00 | 0.00 | 46 | 1014.2 |
| 20260507135103 | 54 | 338 | 4.3 | 6.1 | 0.00 | 0.00 | 0.00 | 47 | 1014.1 |
| 20260507134559 | 54 | 16 | 1.7 | 2.6 | 0.00 | 0.00 | 0.00 | 53 | 1014.1 |
| 20260507134055 | 53 | 197 | 0.9 | 0.9 | 0.00 | 0.00 | 0.00 | 52 | 1014.4 |
| 20260507133551 | 53 | 267 | 1.7 | 1.7 | 0.00 | 0.00 | 0.00 | 59 | 1014.3 |
| 20260507133049 | 53 | 4 | 3.5 | 4.3 | 0.00 | 0.00 | 0.00 | 53 | 1014.3 |
| 20260507132546 | 52 | 33 | 0.9 | 0.9 | 0.00 | 0.00 | 0.00 | 58 | 1014.4 |
| 20260507132042 | 52 | 17 | 1.7 | 1.7 | 0.00 | 0.00 | 0.00 | 55 | 1014.3 |
| 20260507131539 | 52 | 41 | 1.7 | 2.6 | 0.00 | 0.00 | 0.00 | 56 | 1014.4 |
| 20260507131037 | 51 | 300 | 0.9 | 1.7 | 0.00 | 0.00 | 0.00 | 59 | 1014.5 |
| 20260507130533 | 50 | 275 | 1.7 | 1.7 | 0.00 | 0.00 | 0.00 | 61 | 1014.5 |
| 20260507130032 | 50 | 353 | 2.6 | 2.6 | 0.00 | 0.00 | 0.00 | 62 | 1014.2 |
| 20260507125530 | 50 | 169 | 1.7 | 1.7 | 0.00 | 0.00 | 0.00 | 65 | 1014.5 |
| 20260507125027 | 50 | 308 | 3.5 | 4.3 | 0.00 | 0.00 | 0.00 | 62 | 1014.5 |
| 20260507124523 | 49 | 309 | 1.7 | 1.7 | 0.00 | 0.00 | 0.00 | 66 | 1014.4 |
| 20260507124021 | 49 | 318 | 1.7 | 1.7 | 0.00 | 0.00 | 0.00 | 66 | 1014.4 |
| 20260507123519 | 49 | 336 | 0.9 | 0.9 | 0.00 | 0.00 | 0.00 | 68 | 1014.6 |
| 20260507123015 | 49 | 240 | 0.0 | 0.0 | 0.00 | 0.00 | 0.00 | 66 | 1014.4 |
| 20260507122510 | 48 | 28 | 0.9 | 0.9 | 0.00 | 0.00 | 0.00 | 69 | 1014.5 |
| 20260507122007 | 48 | 329 | 1.7 | 1.7 | 0.00 | 0.00 | 0.00 | 69 | 1014.3 |
| 20260507121502 | 48 | 313 | 2.6 | 2.6 | 0.00 | 0.00 | 0.00 | 68 | 1014.1 |
| 20260507120958 | 48 | 16 | 0.9 | 0.9 | 0.00 | 0.00 | 0.00 | 69 | 1014.0 |
| 20260507120455 | 48 | 353 | 2.6 | 2.6 | 0.00 | 0.00 | 0.00 | 69 | 1014.2 |
| 20260507115952 | 48 | 259 | 0.9 | 0.9 | 0.00 | 0.00 | 0.00 | 69 | 1014.1 |
| 20260507115448 | 48 | 68 | 2.6 | 4.3 | 0.00 | 0.00 | 0.00 | 68 | 1014.3 |
| 20260507114944 | 47 | 320 | 1.7 | 0.9 | 0.00 | 0.00 | 0.00 | 69 | 1014.2 |
| 20260507114440 | 47 | 258 | 1.7 | 1.7 | 0.00 | 0.00 | 0.00 | 70 | 1014.3 |
| 20260507113938 | 46 | 12 | 1.7 | 1.7 | 0.00 | 0.00 | 0.00 | 71 | 1014.2 |
| 20260507113434 | 46 | 7 | 1.7 | 1.7 | 0.00 | 0.00 | 0.00 | 72 | 1014.4 |
| 20260507112932 | 45 | 282 | 1.7 | 1.7 | 0.00 | 0.00 | 0.00 | 72 | 1014.3 |
| 20260507112429 | 45 | 124 | 0.0 | 0.0 | 0.00 | 0.00 | 0.00 | 73 | 1014.1 |
| 20260507111926 | 44 | 34 | 0.9 | 0.9 | 0.00 | 0.00 | 0.00 | 74 | 1014.5 |
| 20260507111423 | 44 | 160 | 0.0 | 0.0 | 0.00 | 0.00 | 0.00 | 74 | 1014.0 |
| 20260507110920 | 43 | 300 | 0.9 | 0.9 | 0.00 | 0.00 | 0.00 | 75 | 1013.8 |
| 20260507110416 | 43 | 299 | 0.9 | 0.9 | 0.00 | 0.00 | 0.00 | 77 | 1013.9 |
| 20260507105913 | 42 | 207 | 0.0 | 0.0 | 0.00 | 0.00 | 0.00 | 77 | 1014.0 |
| 20260507105409 | 42 | 114 | 0.0 | 0.0 | 0.00 | 0.00 | 0.00 | 78 | 1013.8 |
| 20260507104906 | 42 | 191 | 0.0 | 0.9 | 0.00 | 0.00 | 0.00 | 78 | 1014.1 |
| 20260507104403 | 42 | 153 | 0.0 | 0.0 | 0.00 | 0.00 | 0.00 | 79 | 1013.9 |
| 20260507103859 | 42 | 160 | 0.0 | 0.0 | 0.00 | 0.00 | 0.00 | 79 | 1013.7 |
| 20260507103356 | 42 | 198 | 0.0 | 0.0 | 0.00 | 0.00 | 0.00 | 78 | 1013.8 |
| 20260507102852 | 42 | 240 | 0.9 | 0.9 | 0.00 | 0.00 | 0.00 | 78 | 1013.8 |
| 20260507102348 | 42 | 166 | 0.0 | 0.0 | 0.00 | 0.00 | 0.00 | 78 | 1013.5 |
| 20260507101845 | 42 | 167 | 0.9 | 0.9 | 0.00 | 0.00 | 0.00 | 78 | 1013.6 |
| 20260507101345 | 42 | 317 | 0.0 | 0.0 | 0.00 | 0.00 | 0.00 | 77 | 1013.8 |
| 20260507100842 | 43 | 296 | 0.9 | 0.9 | 0.00 | 0.00 | 0.00 | 77 | 1013.7 |
| 20260507100340 | 43 | 279 | 0.0 | 0.0 | 0.00 | 0.00 | 0.00 | 76 | 1013.6 |
| 20260507095838 | 43 | 219 | 0.0 | 0.0 | 0.00 | 0.00 | 0.00 | 76 | 1013.7 |
| 20260507095334 | 43 | 277 | 0.0 | 0.0 | 0.00 | 0.00 | 0.00 | 76 | 1013.8 |
| 20260507094832 | 43 | 354 | 0.9 | 0.9 | 0.00 | 0.00 | 0.00 | 76 | 1013.8 |
| 20260507094328 | 43 | 218 | 0.9 | 0.9 | 0.00 | 0.00 | 0.00 | 76 | 1013.8 |
| 20260507093825 | 43 | 168 | 0.0 | 0.0 | 0.00 | 0.00 | 0.00 | 78 | 1013.9 |
| 20260507093324 | 43 | 213 | 0.0 | 0.0 | 0.00 | 0.00 | 0.00 | 77 | 1013.8 |
| 20260507092821 | 43 | 157 | 0.0 | 0.9 | 0.00 | 0.00 | 0.00 | 78 | 1013.6 |
| 20260507092318 | 43 | 283 | 0.0 | 0.0 | 0.00 | 0.00 | 0.00 | 80 | 1013.7 |
| 20260507091814 | 41 | 256 | 1.7 | 1.7 | 0.00 | 0.00 | 0.00 | 86 | 1013.8 |
| 20260507091310 | 41 | 125 | 0.0 | 0.0 | 0.00 | 0.00 | 0.00 | 92 | 1014.0 |
| 20260507090805 | 40 | 67 | 0.0 | 0.0 | 0.00 | 0.00 | 0.00 | 93 | 1013.8 |
| 20260507090302 | 40 | 75 | 0.0 | 0.0 | 0.00 | 0.00 | 0.00 | 94 | 1013.9 |
| 20260507085759 | 40 | 124 | 0.0 | 0.0 | 0.00 | 0.00 | 0.00 | 94 | 1013.9 |